Location: Bonnesvalyn
(49.1218°N, 3.3177°E)
Time: 08:26:13
(UTC+00:00)

BlueWalker 3 - Pass Details

Date: 09 February 2023
Orbit: 497 x 515 km, 53.2° (Epoch: 23 March)

Event Time Altitude Azimuth Distance (km) Brightness Sun altitude
Rises 18:14:00 0° 294° (WNW) 2,604 6.6 -13.1°
Reaches altitude 10° 18:16:11 10° 294° (WNW) 1,721 5.6 -13.4°
Maximum altitude 18:20:05 85° 205° (SSW) 516 1.9 -14.1°
Enters shadow 18:22:39 21° 119° (ESE) 1,196 3.4 -14.5°
